Other Public Products
Issued by NWS Charleston, SC

Current Version | Previous Version | Graphics & Text | Print | Product List | Glossary On
Versions: 1 2 3 4 5 6 7 8 9 10 11 12 13 14 15 16 17 18 19 20 21 22 23 24 25 26 27 28 29 30 31 32 33 34 35 36 37 38 39 40 41 42 43 44 45 46 47 48 49 50
413 FPUS82 KCHS 240512 OPUCHS TEST...KCHS/KSAV Gateway Observations...TEST National Weather Service Charleston SC 100 AM EDT MON JUL 24 2017 NOTE: "fair" indicates few or no clouds below 12,000 feet with no significant weather and/or obstructions to visibility. SCZ050-WAZ558-NCZ071-TXZ119-213-PAZ071-DCZ001-FLZ074-172-MI076- NYZ176-178-MAZ016-IL014-TNZ027-NJZ106-GAZ044-MD014-240600- ...Gateway Observations for Charleston International... CITY SKY/WX TMP DP RH WIND PRES REMARKS Chas Airport MOCLDY 78 73 84 SW7 29.93F Seattle PTCLDY 65 54 67 N8 30.04R Charlotte MOCLDY 74 70 87 W7 29.91F Dallas DFW TSTM 76 72 87 E7 29.97R Dallas Love TSTM 75 71 87 E13 29.97R FOG Philladelphia CLOUDY 72 69 90 E9 29.78F Wash National CLOUDY 76 73 91 NE10 29.76F Baltimore TSTM 73 73 100 S12G24 29.75F FOG Miami MOCLDY 84 75 74 E5 30.03F HX 92 Detroit CLOUDY 69 66 90 W5 29.80R Newark CLOUDY 75 66 73 E13G18 29.84F Laguardia CLOUDY 73 69 87 E10 29.84F J F K CLOUDY 74 70 87 E12 29.85F Boston Logan CLOUDY 64 57 78 SE5 N/A Ft. Lauderdale PTCLDY 84 76 76 CALM 30.02F HX 93 Chicago O`Hare MOCLDY 71 65 81 NE20G25 29.88R Chicago Midway PTCLDY 73 66 78 N8 29.87R Houston Bush PTCLDY 83 74 74 S7 29.92S Houston Hobby MOCLDY 82 74 76 S7 29.92R Nashville CLOUDY 76 71 85 S12 29.93S Atlanta MOCLDY 79 74 84 SW3 29.94F $$ GAZ044-118-TXZ119-213-NCZ071-DCZ001-MDZ014-506-PAZ021-071-NJZ106- NYZ176-178-MAZ106-OHZ011-021-055-MIZ076-KYZ091-ILZ014-INZ047- MNZ060-ONZ431-240600- ...Gateway Observations for Savannah International... CITY SKY/WX TMP DP RH WIND PRES REMARKS Savannah Arpt CLOUDY N/A N/A N/A SW8 29.96R Atlanta MOCLDY 79 74 84 SW3 29.94F Charlotte MOCLDY 74 70 87 W7 29.91F Dallas DFW TSTM 76 72 87 E7 29.97R Houston Bush PTCLDY 83 74 74 S7 29.92S Wash National CLOUDY 76 73 91 NE10 29.76F Wash Dulles CLOUDY 73 71 93 N3 29.75F Baltimore TSTM 73 73 100 S12G24 29.75F FOG Philadelphia CLOUDY 72 69 90 E9 29.78F Newark CLOUDY 75 66 73 E13G18 29.84F Laguardia CLOUDY 73 69 87 E10 29.84F J F K CLOUDY 74 70 87 E12 29.85F Boston CLOUDY 64 57 78 SE5 N/A Pittsburg CLOUDY 69 68 96 S3 29.80F Akron PTCLDY 68 65 90 SW7 29.81R Cleveland MOCLDY 71 66 84 SW6 29.81R Cincinnati CLEAR 72 70 93 W6 29.87R Columbus CLEAR 66 66 100 W3 29.83R Detroit CLOUDY 69 66 90 W5 29.80R Chicago O`Hare MOCLDY 71 65 81 NE20G25 29.88R Minneapolis CLEAR 65 56 72 NE7 30.03R Indianapolis PTCLDY 74 71 91 NW5 29.86R Toronto Canada CLOUDY 68 57 68 E8 29.74F $$

USA.gov is the U.S. government's official web portal to all federal, state and local government web resources and services.